TimeCST,TemperatureF,Dew PointF,Humidity,Sea Level PressureIn,VisibilityMPH,Wind Direction,Wind SpeedMPH,Gust SpeedMPH,PrecipitationIn,Events,Conditions,WindDirDegrees,DateUTC
12:20 AM,66.2,64.4,94,29.90,8.0,ESE,13.8,-,N/A,,Overcast,120,2013-02-10 06:20:00
12:36 AM,66.2,64.4,94,29.89,8.0,ESE,12.7,-,N/A,,Overcast,120,2013-02-10 06:36:00
12:53 AM,66.0,64.0,93,29.89,7.0,SE,12.7,21.9,N/A,,Overcast,130,2013-02-10 06:53:00
1:53 AM,68.0,66.0,93,29.89,7.0,SE,16.1,23.0,N/A,,Overcast,140,2013-02-10 07:53:00
2:53 AM,68.0,66.9,96,29.86,7.0,SSE,15.0,-,N/A,,Overcast,150,2013-02-10 08:53:00
3:53 AM,68.0,66.9,96,29.80,6.0,SE,19.6,26.5,N/A,,Overcast,130,2013-02-10 09:53:00
4:29 AM,68.0,66.2,94,29.84,4.0,SSE,17.3,21.9,0.00,,Overcast,160,2013-02-10 10:29:00
4:53 AM,69.1,68.0,96,29.84,7.0,South,13.8,-,0.00,,Overcast,170,2013-02-10 10:53:00
5:13 AM,69.8,66.2,88,29.80,8.0,SSE,19.6,24.2,N/A,,Overcast,150,2013-02-10 11:13:00
5:53 AM,69.1,68.0,96,29.84,8.0,South,10.4,-,N/A,,Overcast,180,2013-02-10 11:53:00
6:42 AM,69.8,66.2,88,29.82,10.0,South,19.6,26.5,0.00,Rain,Light Rain,180,2013-02-10 12:42:00
6:53 AM,70.0,66.9,90,29.82,10.0,South,18.4,29.9,0.00,,Mostly Cloudy,180,2013-02-10 12:53:00
7:53 AM,70.0,68.0,93,29.83,8.0,South,25.3,32.2,N/A,,Mostly Cloudy,180,2013-02-10 13:53:00
8:08 AM,69.8,68.0,94,29.85,8.0,South,24.2,32.2,N/A,,Overcast,180,2013-02-10 14:08:00
8:53 AM,72.0,68.0,87,29.86,9.0,South,16.1,21.9,N/A,,Overcast,170,2013-02-10 14:53:00
9:53 AM,73.0,69.1,87,29.86,10.0,South,17.3,25.3,N/A,,Overcast,180,2013-02-10 15:53:00
10:05 AM,73.4,69.8,88,29.87,9.0,South,18.4,26.5,N/A,,Overcast,180,2013-02-10 16:05:00
10:53 AM,73.9,69.1,85,29.88,10.0,South,17.3,29.9,N/A,,Overcast,190,2013-02-10 16:53:00
11:53 AM,73.9,69.1,85,29.88,9.0,South,19.6,27.6,N/A,,Overcast,190,2013-02-10 17:53:00
12:53 PM,75.9,69.1,79,29.86,10.0,SSW,17.3,27.6,N/A,,Overcast,210,2013-02-10 18:53:00
1:32 PM,68.0,62.6,83,29.86,10.0,NW,10.4,16.1,N/A,,Overcast,310,2013-02-10 19:32:00
1:53 PM,64.0,60.1,87,29.86,10.0,NNW,5.8,23.0,0.00,Rain,Light Rain,340,2013-02-10 19:53:00
2:09 PM,64.4,60.8,88,29.85,9.0,NNW,5.8,-,0.00,Rain,Light Rain,330,2013-02-10 20:09:00
2:53 PM,62.1,59.0,90,29.86,6.0,North,6.9,-,0.04,Rain,Light Rain,350,2013-02-10 20:53:00
3:53 PM,62.1,59.0,90,29.88,10.0,North,8.1,-,0.03,,Overcast,350,2013-02-10 21:53:00
4:53 PM,63.0,59.0,87,29.88,10.0,NNE,5.8,-,0.00,,Overcast,20,2013-02-10 22:53:00
5:53 PM,62.1,57.9,86,29.89,10.0,NNE,5.8,-,0.00,,Overcast,20,2013-02-10 23:53:00
6:53 PM,63.0,57.9,84,29.90,10.0,NNE,6.9,-,N/A,,Overcast,30,2013-02-11 00:53:00
7:53 PM,63.0,57.9,84,29.92,10.0,NE,5.8,-,N/A,,Overcast,50,2013-02-11 01:53:00
8:53 PM,63.0,59.0,87,29.96,10.0,North,5.8,-,N/A,,Overcast,350,2013-02-11 02:53:00
9:53 PM,63.0,59.0,87,29.96,10.0,NNE,4.6,-,N/A,,Overcast,20,2013-02-11 03:53:00
10:31 PM,62.6,59.0,88,29.96,10.0,NE,5.8,-,N/A,,Overcast,50,2013-02-11 04:31:00
10:53 PM,63.0,59.0,87,29.95,10.0,NE,5.8,-,N/A,,Overcast,40,2013-02-11 04:53:00
11:09 PM,62.6,59.0,88,29.95,10.0,NNE,6.9,-,N/A,,Overcast,30,2013-02-11 05:09:00
11:53 PM,63.0,59.0,87,29.96,10.0,NNE,5.8,-,N/A,,Overcast,20,2013-02-11 05:53:00